• En España
  • Lista de países
  • Para 7 días
  • Temperatura del agua
  • Mapa Satelital
  • El tiempo en el mapa
  • Informadores
  • user-avatar
    Iniciar sesión

    Tiempo cada hora Bakhtaran

    Hoy, 15 Noviembre, Jueves

    Tiempo Temperatura Precipitaciones Viento Presión Humedad
    00:00 +10°C° 0.1 mm 2 mps 635 mmHg 49%
    01:00 +9°C° 0 mm 2 mps 635 mmHg 51%
    02:00 +9°C° 0 mm 2 mps 635 mmHg 53%
    03:00 +9°C° 0 mm 2 mps 634 mmHg 57%
    04:00 +9°C° 0 mm 2 mps 635 mmHg 59%
    05:00 +8°C° 0 mm 2 mps 635 mmHg 62%
    06:00 +9°C° 0 mm 1 mps 635 mmHg 65%
    07:00 +9°C° 0 mm 2 mps 635 mmHg 65%
    08:00 +10°C° 0 mm 2 mps 636 mmHg 65%
    09:00 +11°C° 0 mm 3 mps 636 mmHg 63%
    10:00 +12°C° 0 mm 3 mps 637 mmHg 60%
    11:00 +13°C° 0 mm 3 mps 637 mmHg 56%
    12:00 +14°C° 0 mm 4 mps 637 mmHg 53%
    13:00 +14°C° 0.1 mm 4 mps 637 mmHg 52%
    14:00 +15°C° 0.1 mm 4 mps 637 mmHg 51%
    15:00 +14°C° 0 mm 4 mps 637 mmHg 57%
    16:00 +13°C° 0.2 mm 4 mps 636 mmHg 61%
    17:00 +12°C° 0.2 mm 3 mps 636 mmHg 65%
    18:00 +13°C° 0.2 mm 2 mps 636 mmHg 69%
    19:00 +13°C° 0.2 mm 2 mps 636 mmHg 71%
    20:00 +12°C° 0.2 mm 2 mps 636 mmHg 72%
    21:00 +12°C° 0.2 mm 2 mps 636 mmHg 74%
    22:00 +12°C° 0.6 mm 2 mps 636 mmHg 75%
    23:00 +12°C° 0.6 mm 2 mps 636 mmHg 76%

    Mañana, 16 Noviembre, Viernes

    Tiempo Temperatura Precipitaciones Viento Presión Humedad
    00:00 +12°C° 0.6 mm 2 mps 636 mmHg 77%
    01:00 +12°C° 0.6 mm 2 mps 636 mmHg 78%
    02:00 +10°C° 0.6 mm 2 mps 636 mmHg 80%
    03:00 +10°C° 0.6 mm 2 mps 636 mmHg 81%
    04:00 +10°C° 1 mm 2 mps 636 mmHg 83%
    05:00 +10°C° 1 mm 2 mps 636 mmHg 85%
    06:00 +10°C° 1 mm 1 mps 636 mmHg 86%
    07:00 +10°C° 1.6 mm 1 mps 636 mmHg 86%
    08:00 +10°C° 1.6 mm 1 mps 637 mmHg 86%
    09:00 +10°C° 1.6 mm 1 mps 637 mmHg 86%
    10:00 +10°C° 0.8 mm 1 mps 637 mmHg 83%
    11:00 +11°C° 0.8 mm 1 mps 637 mmHg 80%
    12:00 +11°C° 0.8 mm 1 mps 638 mmHg 76%
    13:00 +12°C° 0 mm 1 mps 638 mmHg 71%
    14:00 +13°C° 0 mm 1 mps 638 mmHg 65%
    15:00 +13°C° 0 mm 1 mps 639 mmHg 60%
    16:00 +13°C° 0 mm 1 mps 639 mmHg 64%
    17:00 +12°C° 0 mm 1 mps 639 mmHg 67%
    18:00 +11°C° 0 mm 1 mps 639 mmHg 71%
    19:00 +11°C° 0 mm 1 mps 639 mmHg 73%
    20:00 +10°C° 0 mm 1 mps 639 mmHg 75%
    21:00 +10°C° 0 mm 1 mps 640 mmHg 77%
    22:00 +10°C° 0 mm 1 mps 640 mmHg 78%
    23:00 +9°C° 0 mm 1 mps 640 mmHg 80%

    Pasado mañana, 17 Noviembre, Sábado

    Tiempo Temperatura Precipitaciones Viento Presión Humedad
    00:00 +9°C° 0 mm 1 mps 640 mmHg 81%
    01:00 +9°C° 0 mm 1 mps 639 mmHg 83%
    02:00 +7°C° 0 mm 0 mps 639 mmHg 85%
    03:00 +7°C° 0 mm 0 mps 639 mmHg 86%
    04:00 +7°C° 0 mm 0 mps 639 mmHg 87%
    05:00 +6°C° 0 mm 0 mps 639 mmHg 88%
    06:00 +6°C° 0 mm 0 mps 639 mmHg 88%
    07:00 +8°C° 0 mm 0 mps 640 mmHg 82%
    08:00 +9°C° 0 mm 0 mps 640 mmHg 76%
    09:00 +10°C° 0 mm 0 mps 641 mmHg 70%
    10:00 +11°C° 0 mm 0 mps 641 mmHg 62%
    11:00 +12°C° 0 mm 0 mps 641 mmHg 53%
    12:00 +13°C° 0 mm 0 mps 641 mmHg 45%
    13:00 +15°C° 0 mm 1 mps 641 mmHg 42%
    14:00 +15°C° 0 mm 1 mps 641 mmHg 38%
    15:00 +16°C° 0 mm 1 mps 640 mmHg 35%
    16:00 +15°C° 0 mm 1 mps 640 mmHg 39%
    17:00 +14°C° 0 mm 1 mps 640 mmHg 43%
    18:00 +13°C° 0 mm 1 mps 639 mmHg 47%
    19:00 +12°C° 0 mm 1 mps 639 mmHg 48%
    20:00 +12°C° 0 mm 1 mps 639 mmHg 50%
    21:00 +11°C° 0 mm 1 mps 639 mmHg 52%
    22:00 +11°C° 0 mm 1 mps 639 mmHg 54%
    23:00 +10°C° 0 mm 1 mps 639 mmHg 56%

    18 Noviembre, Domingo

    Tiempo Temperatura Precipitaciones Viento Presión Humedad
    00:00 +10°C° 0 mm 1 mps 638 mmHg 57%
    01:00 +8°C° 0 mm 0 mps 638 mmHg 59%
    02:00 +8°C° 0 mm 0 mps 638 mmHg 60%
    03:00 +8°C° 0 mm 0 mps 637 mmHg 62%
    04:00 +7°C° 0 mm 0 mps 637 mmHg 63%
    05:00 +7°C° 0 mm 0 mps 637 mmHg 64%
    06:00 +7°C° 0 mm 0 mps 637 mmHg 65%
    07:00 +8°C° 0 mm 0 mps 638 mmHg 59%
    08:00 +9°C° 0 mm 0 mps 639 mmHg 53%
    09:00 +11°C° 0 mm 0 mps 639 mmHg 47%
    10:00 +12°C° 0 mm 0 mps 639 mmHg 42%
    11:00 +14°C° 0 mm 1 mps 639 mmHg 36%
    12:00 +15°C° 0 mm 1 mps 639 mmHg 31%
    13:00 +15°C° 0 mm 1 mps 639 mmHg 29%
    14:00 +16°C° 0 mm 1 mps 639 mmHg 27%
    15:00 +16°C° 0 mm 1 mps 639 mmHg 25%
    16:00 +15°C° 0 mm 1 mps 638 mmHg 30%
    17:00 +14°C° 0 mm 1 mps 638 mmHg 34%
    18:00 +13°C° 0 mm 1 mps 638 mmHg 38%
    19:00 +12°C° 0 mm 1 mps 638 mmHg 40%
    20:00 +11°C° 0 mm 1 mps 638 mmHg 42%
    21:00 +11°C° 0 mm 1 mps 638 mmHg 45%
    22:00 +9°C° 0 mm 0 mps 637 mmHg 46%
    23:00 +9°C° 0 mm 0 mps 637 mmHg 47%

    19 Noviembre, Lunes

    Tiempo Temperatura Precipitaciones Viento Presión Humedad
    00:00 +8°C° 0 mm 0 mps 637 mmHg 49%
    01:00 +8°C° 0 mm 0 mps 637 mmHg 49%
    02:00 +8°C° 0 mm 0 mps 636 mmHg 50%
    03:00 +7°C° 0 mm 0 mps 636 mmHg 51%
    04:00 +7°C° 0 mm 0 mps 636 mmHg 51%
    05:00 +7°C° 0 mm 0 mps 636 mmHg 51%
    06:00 +7°C° 0 mm 0 mps 636 mmHg 51%
    07:00 +8°C° 0 mm 0 mps 637 mmHg 46%
    08:00 +10°C° 0 mm 0 mps 638 mmHg 40%
    09:00 +11°C° 0 mm 0 mps 639 mmHg 35%
    10:00 +12°C° 0 mm 0 mps 639 mmHg 31%
    11:00 +14°C° 0 mm 0 mps 639 mmHg 27%
    12:00 +15°C° 0 mm 0 mps 639 mmHg 23%
    13:00 +15°C° 0 mm 0 mps 639 mmHg 23%
    14:00 +15°C° 0 mm 0 mps 639 mmHg 22%
    15:00 +18°C° 0 mm 1 mps 639 mmHg 21%
    16:00 +14°C° 0 mm 0 mps 639 mmHg 25%
    17:00 +13°C° 0 mm 0 mps 639 mmHg 29%
    18:00 +12°C° 0 mm 0 mps 638 mmHg 33%
    19:00 +12°C° 0 mm 0 mps 638 mmHg 34%
    20:00 +11°C° 0 mm 0 mps 638 mmHg 35%
    21:00 +11°C° 0 mm 0 mps 638 mmHg 35%
    22:00 +11°C° 0 mm 0 mps 638 mmHg 36%
    23:00 +10°C° 0 mm 0 mps 638 mmHg 37%

    20 Noviembre, Martes

    Tiempo Temperatura Precipitaciones Viento Presión Humedad
    00:00 +10°C° 0 mm 0 mps 637 mmHg 38%
    01:00 +9°C° 0 mm 0 mps 637 mmHg 38%
    02:00 +9°C° 0 mm 0 mps 637 mmHg 39%
    03:00 +9°C° 0 mm 0 mps 637 mmHg 39%
    04:00 +8°C° 0 mm 0 mps 637 mmHg 39%
    05:00 +8°C° 0 mm 0 mps 637 mmHg 40%
    06:00 +8°C° 0 mm 0 mps 637 mmHg 40%
    07:00 +9°C° 0 mm 0 mps 638 mmHg 36%
    08:00 +11°C° 0 mm 0 mps 639 mmHg 33%
    09:00 +12°C° 0 mm 0 mps 640 mmHg 29%
    10:00 +13°C° 0 mm 0 mps 640 mmHg 27%
    11:00 +14°C° 0 mm 0 mps 640 mmHg 25%
    12:00 +15°C° 0 mm 0 mps 640 mmHg 23%
    13:00 +15°C° 0 mm 0 mps 639 mmHg 22%
    14:00 +15°C° 0 mm 0 mps 639 mmHg 22%
    15:00 +18°C° 0 mm 1 mps 639 mmHg 22%
    16:00 +16°C° 0 mm 1 mps 639 mmHg 25%
    17:00 +13°C° 0 mm 0 mps 639 mmHg 29%
    18:00 +12°C° 0 mm 0 mps 639 mmHg 33%
    19:00 +12°C° 0 mm 0 mps 639 mmHg 34%
    20:00 +11°C° 0 mm 0 mps 639 mmHg 35%
    21:00 +12°C° 0 mm 1 mps 639 mmHg 36%
    22:00 +10°C° 0 mm 0 mps 638 mmHg 38%
    23:00 +10°C° 0 mm 0 mps 638 mmHg 39%
    Mostrar más